Hourly Data Report for October 12, 2015

All times are specified in Local Standard Time (LST). Add 1 hour to adjust for Daylight Saving Time where and when it is observed.

PANGNIRTUNG
NUNAVUT

66°08'36.300" N
65°42'40.500" W
22.60 m
2403049
71826
WXP

Download Data

Hourly Data (October 2015)
Hourly Data Report for October 12, 2015
Temp Definition
°C
Dew Point Temp Definition
°C
Rel Hum Definition
%
Wind Dir Definition
10's deg

Wind Spd Definition
km/h
Visibility Definition
km
Stn Press Definition
kPa
Hmdx Definition


Wind Chill Definition


Weather Definition


TIME
00:00 -2.4 -7.6 67 7 4   99.08   -4 LegendNANA
01:00 -3.1 -7.3 73 16 2   99.05   -4 LegendNANA
02:00 -3.0 -7.0 74 24 4   99.00   -5 LegendNANA
03:00 -3.7 -7.7 74 14 5   98.95   -6 LegendNANA
04:00 -3.0 -6.8 75 8 4   98.91   -5 LegendNANA
05:00 -3.2 -7.4 72 0 1   98.86   -4 LegendNANA
06:00 -2.9 -7.1 73 15 2   98.82   -4 LegendNANA
07:00 -3.0 -7.4 71 14 6   98.78   -5 LegendNANA
08:00 -3.2 -6.4 78 0 1   98.76   -4 LegendNANA
09:00 -3.3 -6.2 80 24 9   98.73   -7 LegendNANA
10:00 -3.1 -6.8 76 17 2   98.71   -4 LegendNANA
11:00 -3.3 -5.8 83 24 7   98.70   -6 LegendNANA
12:00 -3.3 -5.2 87 23 11   98.73   -8 LegendNANA
13:00 -3.6 -6.2 82 0 1   98.75   -4 LegendNANA
14:00 -3.4 -5.8 83 23 7   98.77   -6 LegendNANA
15:00 -3.3 -6.0 82 24 6   98.80   -6 LegendNANA
16:00 -4.3 -6.8 83 16 4   98.81   -6 LegendNANA
17:00 -4.0 -5.3 91 23 8   98.87   -7 LegendNANA
18:00 -4.4 -6.9 83 17 1   98.90   -5 LegendNANA
19:00 -4.2 -5.9 88 26 4   98.94   -6 LegendNANA
20:00 -4.3 -6.4 85   0   98.96     LegendNANA
21:00 -4.4 -6.8 84   0   98.99     LegendNANA
22:00 -4.6 -6.7 85 0 1   99.02   -5 LegendNANA
23:00 -5.1 -8.4 78 23 4   99.06   -7 LegendNANA

Notes on Data Quality.

Legend

  • E = Estimated
  • M = Missing
  • NA = Not Available
  • ‡ = Partner data that is not subject to review by the National Climate Archives
Date modified: